Theta_e
285 285 285 284 283 283 283 283 283 283 282 282 281 281 281 281 279 279 279 278 278 277 277 276 276 276 276 276 276 276 275 275 275 275 275 274 274 275 275 275 274 274 274 274 275 275 275 274 274 275 275 274 275 275 275 275 275 276 276 275 275 275 275 273 272 272 275 277 276 276 277 278 277 278 277 278 278 279 281 280 280 280 281 281 282
284 284 284 283 283 283 283 282 282 282 281 281 280 280 279 279 279 278 277 277 277 277 276 276 276 276 276 275 275 275 275 275 274 274 274 274 273 276 276 273 273 273 273 273 273 276 274 273 274 274 275 274 274 274 274 274 274 274 274 274 273 274 274 273 273 272 272 275 275 276 275 277 275 277 275 276 276 277 277 278 279 279 279 280 280
284 283 283 283 282 282 282 282 282 281 280 279 279 279 278 278 278 277 277 277 276 276 275 275 276 275 275 275 274 275 275 274 274 274 273 273 272 272 274 273 273 273 273 273 273 273 273 273 273 273 275 273 273 273 274 273 273 273 273 273 273 273 274 274 273 272 272 272 274 273 274 274 274 274 275 276 276 276 276 276 277 278 279 279 280
283 283 283 282 282 282 281 281 281 280 279 278 278 277 277 277 277 277 276 276 276 275 275 275 275 274 274 274 274 273 273 273 273 273 273 273 272 272 272 272 273 273 273 272 272 273 272 272 272 272 273 272 272 272 273 272 272 272 272 272 272 272 273 273 273 272 271 270 272 272 273 272 273 274 275 275 275 275 276 276 277 277 277 279 279
283 283 282 282 282 281 281 281 280 279 278 277 277 276 276 276 276 275 275 275 275 274 275 274 274 274 274 273 273 273 273 273 273 272 272 272 272 272 272 273 273 273 273 273 275 272 272 272 272 272 272 272 272 272 272 271 271 271 271 272 272 272 272 272 272 272 271 270 270 272 272 272 273 273 274 273 274 274 275 274 275 275 276 277 277
283 282 282 282 281 281 280 280 279 278 277 276 276 276 275 275 275 274 274 274 273 273 272 273 273 272 272 272 272 272 272 272 272 271 271 272 272 272 273 273 273 273 272 273 273 272 272 272 272 272 272 272 272 271 271 271 271 271 271 271 271 272 271 271 272 271 271 270 270 270 271 271 272 272 273 273 272 272 272 273 274 275 274 274 275
282 282 282 281 281 280 280 279 279 278 277 276 275 275 275 275 274 273 273 273 272 272 272 272 273 271 272 272 271 271 272 271 271 271 271 272 272 273 273 272 273 272 273 273 273 273 272 272 272 272 272 272 271 271 271 271 271 271 271 271 271 271 271 271 271 271 271 270 270 270 270 272 272 270 272 273 273 272 271 271 271 273 274 274 274
282 282 281 281 281 281 280 279 278 278 276 276 275 276 275 274 273 273 273 272 272 272 271 272 271 271 271 271 271 271 271 271 271 270 271 272 272 272 272 272 272 272 272 273 272 272 273 272 272 272 272 272 271 272 272 271 272 271 272 272 272 272 271 271 271 270 270 269 269 269 270 270 271 272 273 273 271 271 272 271 270 271 272 274 274
282 281 281 280 280 280 280 279 278 277 276 275 275 274 274 273 273 272 272 272 273 271 271 271 271 271 271 271 271 271 271 271 271 270 270 272 273 273 273 272 272 272 272 272 272 272 272 273 272 272 274 276 277 276 276 276 273 270 271 273 272 272 271 271 270 270 269 269 268 270 269 270 270 270 270 271 270 270 272 272 271 272 273 273 274
281 281 280 280 281 280 280 279 278 277 276 276 275 274 273 272 272 271 271 270 270 270 270 270 270 270 270 270 270 271 271 271 273 274 275 274 273 274 274 273 272 272 271 271 271 272 272 272 273 276 276 275 275 276 276 276 276 275 274 273 273 272 271 270 270 270 269 269 269 269 269 269 270 271 271 272 273 273 272 272 271 272 273 273 274
281 281 280 280 280 279 279 277 276 276 276 275 274 273 272 271 270 270 269 268 269 269 269 270 269 270 270 269 269 270 270 271 274 275 276 276 275 274 273 273 273 273 272 271 270 271 271 272 271 272 273 273 273 274 275 275 276 276 276 276 276 274 272 271 271 271 270 269 270 270 270 270 271 272 272 272 273 272 272 272 272 272 271 270 269
281 281 280 280 280 279 278 277 277 276 275 274 273 272 271 270 270 269 268 268 268 267 268 269 269 269 269 269 268 269 269 274 275 275 276 276 276 275 274 273 273 273 273 272 272 271 270 270 270 271 271 271 272 271 272 274 275 275 276 276 276 276 276 274 272 271 271 270 270 270 271 270 271 272 272 273 272 273 273 273 272 272 271 271 271
281 281 281 281 280 280 279 278 277 275 274 273 271 270 270 270 269 268 268 268 267 267 269 269 268 268 268 268 267 267 268 273 275 275 275 276 276 276 274 273 272 272 273 273 272 271 270 269 269 270 270 273 272 270 270 270 273 275 275 276 276 276 277 277 278 275 274 272 271 271 271 271 271 272 273 273 274 272 273 272 273 273 273 272 272
281 281 281 281 281 279 278 277 276 275 273 271 270 269 269 269 268 268 268 268 268 267 266 267 267 267 267 267 266 267 267 271 274 275 275 276 276 276 274 273 273 272 272 272 271 270 269 269 269 269 269 269 270 270 270 270 271 272 272 272 273 274 276 277 278 278 277 274 273 272 273 274 272 273 274 275 273 272 272 272 273 273 273 273 275
281 281 281 280 279 279 278 276 275 273 272 270 269 269 268 268 268 268 268 268 267 267 267 266 266 265 264 265 265 265 266 272 274 275 275 276 276 276 274 273 272 272 272 271 270 269 269 270 269 269 269 269 270 272 272 272 273 273 273 273 273 274 274 274 274 274 274 274 274 274 274 275 274 275 275 275 275 275 275 274 274 274 275 276 275
281 281 280 279 278 278 277 275 274 272 271 270 269 269 268 268 268 268 267 267 266 266 266 266 266 265 264 263 263 264 265 272 273 274 275 275 275 273 272 271 271 270 269 270 270 270 270 270 269 269 269 270 272 275 275 275 274 274 273 274 274 275 275 277 279 279 278 277 277 276 276 277 279 278 279 278 278 278 278 277 276 275 273 271 270
280 281 280 279 279 278 277 275 273 272 270 269 268 268 268 267 267 267 266 268 267 266 265 265 264 264 263 263 263 263 263 268 272 274 274 275 274 271 270 270 270 269 270 270 271 271 270 270 270 271 271 271 274 276 277 278 275 275 274 273 274 274 275 276 279 279 279 279 279 280 280 281 281 281 281 281 278 277 275 272 271 273 271 270 271
281 281 280 279 279 278 277 275 274 272 270 270 269 269 269 268 267 267 267 266 267 265 264 263 262 263 263 263 263 261 262 266 271 273 274 274 273 271 270 269 269 269 269 270 270 270 270 273 273 272 272 272 275 277 279 277 275 274 273 273 273 273 273 274 274 274 277 278 278 278 279 279 279 279 278 278 278 277 272 270 272 272 271 271 269
281 281 280 280 279 277 276 275 274 272 271 271 270 269 269 268 267 266 266 265 265 264 264 263 261 261 262 262 266 264 262 265 270 272 274 274 273 271 270 269 268 269 269 269 271 271 271 273 274 274 274 275 278 278 278 277 274 274 273 272 271 270 271 272 272 272 273 273 272 272 272 273 272 271 272 276 277 276 273 272 272 271 270 270 270
281 281 281 279 278 276 275 275 274 273 272 270 269 269 268 266 266 266 265 265 264 263 262 262 262 262 262 262 262 263 263 262 264 270 272 273 274 272 270 269 268 268 269 269 269 271 271 271 273 276 277 277 278 278 277 278 275 274 273 271 269 268 271 272 273 272 270 269 268 268 268 269 269 270 270 271 272 272 273 273 273 272 271 270 270
281 281 279 278 276 275 275 274 274 273 272 270 269 268 267 267 265 264 264 263 263 262 262 261 261 261 261 262 261 262 262 262 263 270 272 273 274 274 271 270 270 269 269 269 270 270 271 272 272 275 276 277 277 277 277 277 277 274 272 269 270 272 275 271 269 270 267 266 266 266 266 267 267 268 268 269 270 271 271 272 272 272 271 270 269
280 278 278 277 276 275 274 273 272 271 269 268 267 266 265 265 264 263 263 262 262 261 260 260 260 260 261 261 261 261 263 266 262 267 271 273 274 275 272 271 271 270 269 270 270 271 271 272 272 274 275 276 276 277 277 277 276 272 270 274 275 275 272 268 265 264 264 264 264 264 265 265 266 267 268 268 269 270 271 271 272 272 272 271 270
278 278 277 276 275 274 272 271 270 269 267 267 267 265 264 263 262 262 262 261 261 260 259 259 259 260 260 261 262 262 262 263 268 266 270 272 274 274 275 273 274 273 271 271 271 271 272 273 273 274 276 276 276 276 276 276 273 271 274 274 274 274 270 263 264 263 262 263 263 263 264 264 264 265 266 267 268 268 268 269 269 270 270 271 271
277 276 276 275 273 271 270 268 267 266 266 265 265 264 262 261 261 261 261 261 260 259 259 259 259 259 260 261 262 262 263 262 266 270 269 272 274 274 275 275 276 273 273 272 272 272 273 272 272 275 276 276 275 275 275 273 271 273 273 273 273 270 264 262 261 261 262 262 262 262 262 264 264 264 265 266 266 267 267 268 269 269 270 270 271
276 275 274 273 271 269 267 266 265 264 264 265 264 263 261 260 260 260 260 260 260 260 260 261 260 260 261 261 262 263 263 263 263 267 271 272 274 274 275 275 276 276 273 273 274 273 274 276 276 275 275 274 274 273 271 270 272 272 273 272 269 261 261 260 260 261 261 261 262 262 263 264 264 265 266 266 266 267 267 267 268 269 270 270 271
274 274 273 271 269 267 265 263 262 262 262 263 264 263 262 261 261 261 260 260 261 261 262 262 262 262 262 262 262 263 263 263 264 265 269 271 272 273 274 274 274 275 274 274 275 276 276 276 276 274 273 272 269 266 265 266 270 271 270 268 261 261 259 260 260 260 260 262 262 262 262 263 264 265 265 266 265 265 266 266 267 267 268 268 268
273 271 271 269 266 266 265 264 262 261 261 261 262 262 262 261 262 262 261 261 261 262 262 262 262 262 262 261 261 262 262 263 263 263 265 265 265 268 270 271 273 274 273 272 273 272 273 272 271 272 272 272 271 270 269 268 265 264 262 260 260 260 261 259 260 260 261 261 261 262 263 263 264 264 263 264 264 265 267 266 266 266 267 267 267
273 272 270 268 266 265 265 264 262 261 261 261 262 262 262 262 262 263 262 263 262 263 263 263 263 263 262 261 261 261 262 261 263 264 264 264 265 266 268 270 270 270 270 271 271 270 268 270 269 264 262 261 262 259 259 259 260 261 260 259 260 261 263 265 265 262 261 262 262 263 262 262 261 262 263 264 264 265 266 266 265 265 266 266 265
269 267 266 266 264 264 264 263 262 261 260 260 261 262 262 262 263 263 263 265 265 265 264 264 264 264 264 263 262 263 263 262 264 269 267 270 268 266 268 269 270 270 272 273 271 268 267 265 261 260 258 259 259 258 258 258 258 259 258 258 258 259 259 257 258 259 260 260 261 261 261 261 262 263 263 263 263 264 265 264 265 265 265 265 264
267 267 266 266 264 263 263 262 262 262 261 260 260 260 265 267 265 263 263 268 271 272 270 266 265 265 264 265 265 264 264 263 270 272 272 273 274 274 273 273 274 273 274 275 272 266 265 260 258 258 258 257 257 257 258 256 257 257 256 262 260 258 259 258 258 259 260 260 260 260 261 262 262 263 263 263 263 263 265 266 263 264 263 263 263
267 266 265 265 265 263 263 262 262 262 261 261 260 261 259 264 270 271 270 269 271 272 273 273 272 271 266 264 267 271 270 271 271 272 273 274 274 275 275 275 276 275 275 271 267 265 263 260 258 257 258 257 257 258 257 257 257 257 257 257 257 258 260 258 258 259 260 260 260 261 261 262 262 263 262 263 263 263 263 263 263 263 263 263 263
268 267 266 265 265 264 263 263 262 262 261 262 261 261 261 260 262 269 272 272 271 272 272 273 273 273 272 269 266 266 270 273 273 274 274 275 275 275 276 276 275 275 275 274 266 264 262 260 257 257 257 257 258 258 257 256 256 256 256 256 257 257 258 258 260 258 259 259 260 261 262 262 262 263 263 263 263 263 262 262 263 263 263 263 263
268 267 266 265 264 264 263 263 262 262 262 261 261 261 261 262 262 262 267 273 273 273 273 273 273 274 274 274 274 271 270 272 273 274 274 274 275 274 274 275 275 275 275 269 264 263 260 259 257 256 256 258 257 255 256 255 256 256 255 256 256 257 257 259 260 259 259 260 261 261 262 262 263 263 263 263 263 262 263 262 263 263 263 262 263
267 267 266 265 264 263 263 263 262 262 262 262 261 261 261 262 262 262 262 263 268 271 273 274 274 274 274 275 274 275 275 275 275 274 274 274 274 274 273 272 274 275 272 265 263 262 259 258 257 257 256 256 256 256 256 256 255 255 256 256 257 257 258 258 258 258 258 259 260 261 262 262 262 262 262 262 262 262 262 262 262 262 262 263 263
264 264 264 264 264 263 263 263 262 262 261 261 261 261 261 261 261 261 261 262 262 263 262 265 270 273 271 271 272 273 273 274 274 273 273 273 273 273 273 270 268 268 267 263 262 260 257 257 257 257 256 256 256 256 256 254 254 255 255 255 255 255 256 256 257 258 258 258 259 260 261 262 262 262 262 262 262 262 262 262 262 263 263 263 263
264 264 262 264 263 263 262 262 262 262 261 261 260 260 260 260 260 260 260 259 260 259 260 261 262 266 269 270 271 271 271 272 272 272 272 272 272 272 268 267 265 265 264 262 260 259 257 256 255 256 255 255 255 255 255 255 255 254 254 254 256 255 255 256 257 257 258 258 260 261 262 261 262 262 263 262 262 262 262 262 262 263 264 264 264
263 262 262 261 261 262 261 261 260 261 262 260 260 259 259 259 259 259 259 259 259 259 259 260 261 260 263 262 263 266 269 269 270 271 271 271 272 270 268 266 265 264 262 259 257 256 256 256 256 255 255 255 255 254 254 254 254 254 257 256 254 255 255 255 257 258 258 258 258 259 260 261 261 262 263 262 262 262 262 262 263 263 264 264 264
261 261 261 260 260 260 259 259 260 263 260 259 259 259 259 259 259 259 259 258 259 259 259 259 261 259 259 259 263 260 259 265 266 267 268 268 267 266 265 264 263 262 261 258 257 256 256 255 253 254 254 253 254 253 253 254 253 253 254 253 254 255 259 259 259 257 257 257 257 258 260 261 261 262 263 262 262 262 262 263 263 262 263 263 263
258 263 264 264 263 260 259 259 260 259 258 259 258 258 258 258 258 258 258 258 258 258 258 258 258 258 259 259 257 259 259 256 255 256 256 259 261 262 262 262 261 260 259 258 256 255 253 254 254 253 253 253 254 253 253 254 253 253 253 252 254 253 254 254 255 255 256 256 257 258 258 260 261 262 263 262 262 262 262 262 262 262 262 262 262
259 259 263 264 262 262 259 258 258 258 258 258 258 257 257 256 257 257 258 258 258 258 258 258 257 257 257 256 255 254 253 253 253 253 254 255 257 257 258 258 257 257 256 255 254 253 253 253 253 253 253 253 253 254 253 253 253 253 252 253 253 253 254 254 254 255 255 256 256 257 258 259 260 261 262 262 262 262 262 261 261 262 262 262 262
258 260 261 263 262 260 259 258 258 258 258 258 257 257 256 257 258 258 258 258 257 257 257 255 255 253 255 259 262 262 257 255 255 254 253 253 253 251 252 253 253 252 252 253 253 253 253 252 252 253 252 253 252 253 252 252 253 252 253 253 253 254 254 254 254 254 255 255 256 257 258 259 260 260 261 262 264 262 261 261 261 261 262 262 262
259 259 260 260 261 259 258 258 258 259 258 258 258 258 258 257 257 257 257 256 255 255 254 253 252 251 257 261 262 264 263 260 258 257 256 256 255 254 252 251 252 252 254 253 253 253 252 252 253 253 254 253 253 253 252 252 252 251 252 252 253 253 253 254 254 253 254 255 255 256 257 259 260 261 262 263 261 259 260 260 260 261 261 261 262
260 260 260 260 260 259 258 258 257 257 258 258 258 258 257 257 256 255 254 254 253 253 252 252 252 252 253 260 260 262 259 258 259 259 258 257 254 253 253 253 253 253 253 253 253 253 253 252 253 254 254 254 253 253 253 253 251 251 250 251 252 252 252 253 253 254 253 254 255 257 258 259 259 259 260 260 260 259 259 259 260 260 260 260 260
259 259 258 258 257 257 257 258 258 258 258 257 257 256 255 254 253 253 252 252 252 252 252 251 251 251 250 253 256 255 254 254 253 253 253 253 252 253 253 251 252 253 253 254 254 254 253 253 253 253 253 253 252 250 252 251 250 250 250 251 251 253 252 252 253 252 252 252 255 256 257 258 259 260 260 260 259 258 259 259 259 259 259 259 259
259 258 257 257 257 258 257 257 257 256 256 255 254 253 254 253 252 252 252 251 251 251 251 251 250 250 251 250 249 250 251 251 251 251 252 251 251 252 251 251 251 253 253 253 252 252 251 253 252 251 252 252 251 251 251 251 251 251 251 251 251 251 252 252 252 251 252 252 254 255 257 258 258 258 258 259 259 259 259 258 258 259 258 258 258
258 257 257 256 256 256 255 255 254 254 253 253 252 252 252 251 251 251 251 251 251 251 250 250 250 250 250 249 249 250 251 248 250 251 251 251 252 252 251 251 252 253 253 253 253 253 253 253 252 252 252 251 250 250 251 250 251 251 251 251 252 252 252 252 252 252 252 252 253 255 256 257 257 257 258 259 259 259 258 257 257 257 257 258 258
258 257 257 256 256 255 254 254 253 252 252 252 252 251 250 250 250 250 251 251 250 251 250 249 249 249 249 249 250 250 250 250 251 250 251 251 251 252 252 252 253 253 253 253 251 253 252 252 252 251 251 251 250 250 250 250 250 251 251 251 251 252 252 252 253 252 252 253 254 254 254 255 255 255 257 258 258 258 257 257 257 257 257 258 258
257 256 256 255 255 254 254 253 253 253 252 252 252 251 250 250 250 250 249 249 249 249 249 249 248 249 249 250 249 250 250 250 250 251 251 251 251 252 252 253 253 253 253 253 252 252 252 251 251 250 250 251 250 250 250 250 249 250 250 251 251 251 252 254 252 252 252 251 252 252 253 253 254 255 256 257 258 258 257 256 257 257 257 257 258
256 255 255 255 254 254 254 253 253 253 252 252 252 251 250 250 250 249 249 249 249 249 248 249 248 249 249 250 249 249 250 250 250 250 251 251 252 252 253 253 253 253 252 252 252 251 251 250 251 251 250 250 250 250 250 250 250 249 250 250 251 254 254 255 254 253 254 254 253 253 253 254 254 255 257 258 259 259 257 256 256 257 257 257 257
255 255 255 254 254 254 254 253 253 253 252 252 252 251 250 250 249 249 249 249 248 248 248 248 249 249 249 249 249 250 249 250 251 251 251 251 252 252 253 253 252 252 251 251 250 249 249 249 249 250 250 250 249 249 250 250 250 250 249 250 253 254 254 255 255 255 255 253 253 254 254 255 257 258 259 259 258 257 256 256 257 257 257 256 256
254 254 254 254 254 254 254 253 253 252 251 251 250 250 250 250 250 249 249 249 249 249 249 249 249 249 249 250 249 250 250 250 251 251 251 251 252 252 252 252 251 250 249 249 249 249 249 249 250 250 250 250 250 250 249 250 250 250 251 253 253 254 254 255 254 255 256 256 256 256 257 258 258 259 259 259 258 256 258 258 258 257 256 255 256
Wind_Speed
8 8 9 9 9 8 8 8 7 7 7 6 6 5 5 5 5 5 5 5 4 5 4 4 3 3 3 2 2 1 2 2 3 3 3 3 3 3 3 3 3 3 3 4 3 3 3 4 4 4 3 4 4 5 5 5 5 5 4 5 6 4 5 5 8 13 14 9 7 6 6 11 9 7 11 11 10 11 12 11 11 11 11 11 11
8 8 7 9 8 9 8 7 7 7 7 6 6 5 5 6 5 5 5 4 4 4 4 4 3 3 1 1 1 1 1 1 2 2 2 2 3 2 3 3 3 3 3 3 3 3 3 3 4 4 3 4 4 5 5 5 4 4 5 5 5 5 3 5 7 9 15 15 11 5 5 7 11 7 9 13 11 10 13 12 10 10 10 11 11
7 8 9 9 8 8 8 8 7 7 7 6 6 6 5 5 5 6 5 4 4 4 4 3 2 2 1 1 2 1 1 1 2 2 1 1 1 2 2 2 2 2 3 3 3 3 3 3 4 3 3 4 4 4 4 4 3 4 5 4 5 5 4 4 5 9 12 15 12 10 7 7 10 12 10 9 10 11 11 10 10 10 10 11 11
8 8 8 8 8 8 8 8 8 7 7 6 7 6 6 5 4 5 5 4 5 4 3 2 1 2 1 2 1 1 1 1 1 1 1 0 1 1 2 2 2 2 2 3 3 3 3 3 4 3 4 4 4 5 4 3 4 4 5 5 5 5 4 4 4 7 10 13 14 9 9 9 10 10 9 9 9 10 9 11 10 11 11 10 9
9 8 9 10 9 9 8 8 8 7 7 7 7 7 6 6 4 5 5 4 4 4 4 3 1 2 2 1 1 0 0 0 0 1 1 1 1 2 2 1 2 2 3 3 4 3 3 3 4 4 4 5 5 4 4 4 4 5 6 5 5 5 5 5 6 6 9 12 14 10 8 8 8 10 8 10 10 9 10 11 10 10 11 9 9
9 10 9 10 10 9 9 8 8 8 8 7 8 7 7 6 5 4 4 5 4 4 3 2 3 1 2 1 1 1 0 0 1 1 0 1 1 2 2 2 2 2 3 3 3 3 3 3 3 3 4 5 5 4 3 4 5 6 5 5 5 5 6 6 6 7 8 10 11 14 9 8 11 9 8 9 10 12 11 10 8 8 9 10 9
9 10 9 9 10 9 9 9 9 8 8 8 7 7 7 6 5 5 4 4 4 4 4 2 1 3 1 2 1 1 0 1 1 0 1 2 3 3 3 3 3 3 3 3 3 4 3 3 3 4 4 4 5 3 4 5 5 5 5 6 5 6 7 7 8 9 10 11 12 11 12 10 9 13 10 7 9 9 12 12 11 7 8 9 10
10 10 10 10 10 10 10 8 8 8 7 7 7 7 7 6 5 4 4 4 4 4 4 4 2 3 2 1 1 1 0 1 1 2 3 2 2 3 3 3 3 3 3 4 3 3 4 4 4 4 4 4 3 4 4 6 5 5 5 6 8 8 8 8 9 9 10 11 11 12 11 12 11 10 11 10 8 8 6 9 13 13 11 8 7
11 11 10 11 10 9 8 7 8 8 8 8 9 8 7 6 5 5 4 3 4 3 3 3 2 3 3 3 1 0 1 1 1 2 1 1 1 2 2 3 3 3 3 3 4 4 4 4 4 3 4 8 13 12 11 10 7 5 5 5 8 9 9 8 8 8 10 10 12 11 13 13 11 12 13 11 11 12 10 9 12 11 11 10 9
12 11 11 11 9 9 9 8 8 8 9 9 9 8 8 7 7 5 4 3 3 3 3 2 3 3 3 2 2 2 1 1 3 3 3 2 2 3 3 3 3 3 3 4 4 4 4 4 4 9 12 13 13 14 13 13 13 10 8 8 7 7 7 7 7 7 9 11 10 12 13 14 12 13 14 15 14 12 12 11 12 12 13 14 11
12 12 11 9 9 9 9 8 9 9 8 8 7 8 8 7 6 5 4 4 4 3 3 4 3 3 3 2 2 2 2 2 5 4 3 4 3 3 3 4 4 4 4 4 4 4 4 4 3 5 7 8 8 13 13 14 14 15 16 15 13 10 8 8 8 8 9 9 8 10 11 15 16 13 14 14 11 15 12 11 13 14 12 13 15
13 12 11 10 10 11 10 10 10 9 8 8 8 7 7 7 6 5 5 4 4 4 4 4 4 3 3 2 2 3 2 4 6 5 4 4 4 3 3 3 4 4 5 5 4 4 4 4 3 3 4 5 7 5 9 13 15 15 16 16 15 16 15 11 10 9 9 10 11 11 11 14 14 12 11 13 14 11 12 13 14 12 14 14 11
12 12 11 12 12 12 11 12 10 9 9 8 8 7 8 7 6 6 7 5 4 5 6 5 4 3 4 4 3 3 1 5 6 5 5 5 5 5 3 4 4 5 5 6 6 4 4 5 4 4 4 10 8 6 6 7 11 15 17 17 18 19 19 21 20 15 12 13 14 15 12 13 15 12 12 14 13 15 13 12 12 13 14 13 14
12 12 12 12 12 11 12 11 10 10 8 8 8 8 8 8 6 5 5 5 6 4 4 5 5 4 4 4 3 2 2 5 6 6 6 6 6 5 4 4 5 5 6 6 4 4 4 4 5 5 4 4 5 7 7 8 9 9 10 10 10 14 19 22 23 25 21 16 16 17 16 12 12 14 15 15 16 15 14 14 12 14 12 13 13
12 12 13 11 11 10 12 10 10 9 9 9 8 8 8 7 7 7 7 7 7 7 7 6 5 4 4 3 2 3 2 6 7 7 7 7 6 6 4 4 4 5 6 5 4 4 4 5 5 6 5 5 5 9 9 9 9 10 11 11 11 10 9 9 11 12 13 12 13 15 17 14 14 16 15 15 15 14 13 16 16 14 13 11 11
13 12 11 10 12 12 12 11 10 9 10 9 9 9 8 9 9 7 6 5 4 4 4 5 5 5 4 3 3 4 4 8 8 7 7 6 7 3 3 4 4 3 3 4 4 4 4 5 5 6 5 6 10 16 14 12 11 12 13 11 9 9 10 13 20 19 15 13 12 12 12 15 21 19 17 14 12 10 11 11 9 9 12 12 11
13 13 12 13 14 13 13 12 11 11 11 11 10 10 10 8 7 6 6 7 7 7 7 5 4 5 4 4 4 5 4 6 8 8 7 7 5 1 3 3 4 4 5 5 5 5 4 4 5 6 7 7 12 16 17 17 10 10 10 13 14 14 12 9 15 21 24 27 28 30 31 31 31 30 30 32 24 20 15 14 13 12 12 11 8
14 13 13 12 13 13 13 13 13 12 11 13 12 10 8 5 7 8 9 9 8 7 5 4 4 4 5 6 6 5 5 6 9 8 8 8 7 4 4 4 5 5 4 6 5 5 6 12 10 9 9 9 14 17 17 14 10 11 12 13 13 11 11 10 9 12 22 25 25 25 25 26 28 29 29 29 29 22 13 14 13 11 12 10 12
13 13 14 13 13 12 11 12 12 13 13 13 11 11 11 10 7 7 6 5 6 5 5 5 4 4 4 5 7 6 5 7 10 10 10 9 6 3 4 3 5 5 4 5 5 5 6 7 12 11 10 11 16 15 18 15 10 10 10 12 12 13 11 12 12 13 9 10 12 14 16 18 16 14 15 26 26 21 13 12 10 10 12 11 11
12 11 12 11 10 10 10 12 12 13 13 10 9 9 7 7 8 8 6 6 6 6 4 5 5 5 5 5 6 5 5 6 6 11 10 10 10 5 5 5 5 5 5 6 5 5 6 6 8 12 14 14 14 17 18 18 12 10 8 8 10 13 10 11 10 12 13 12 13 13 13 13 11 12 11 12 13 12 12 11 10 9 9 9 9
11 12 9 8 9 10 10 12 13 11 10 10 9 8 8 8 8 8 7 6 6 5 5 4 5 5 5 5 5 5 6 7 8 12 11 11 12 10 4 6 6 5 5 6 6 6 5 5 5 10 12 13 16 18 18 19 18 10 7 7 8 13 16 10 12 16 11 11 11 11 10 10 10 9 9 9 9 9 10 12 10 10 10 10 10
8 7 9 10 10 10 10 9 8 9 7 9 9 8 6 7 7 8 6 6 7 7 5 4 5 5 5 6 6 6 7 10 6 10 13 12 12 14 7 6 7 6 7 7 7 6 4 5 5 6 11 16 18 17 19 18 19 8 8 15 18 19 12 8 9 8 8 9 9 9 9 9 9 9 9 10 9 10 10 11 12 11 10 11 11
7 8 8 9 10 10 9 10 9 8 8 9 10 9 8 8 7 7 7 6 7 7 6 4 4 6 6 6 6 6 6 7 12 9 12 13 13 13 14 11 13 9 7 6 5 5 7 6 3 8 15 17 16 17 18 18 13 9 16 16 16 17 11 6 8 7 8 8 9 9 9 9 9 10 11 11 11 12 12 12 13 14 13 12 13
7 8 9 9 8 8 8 8 7 7 9 9 9 9 8 7 7 7 7 7 7 7 5 5 5 6 7 7 6 6 6 6 9 13 11 14 13 13 13 14 15 8 7 6 7 8 6 4 5 13 14 15 17 17 16 14 10 16 15 16 16 12 6 7 5 7 8 8 8 8 8 8 8 9 10 11 12 13 13 13 13 13 13 11 12
8 8 8 8 8 7 6 7 7 7 8 9 10 9 8 8 8 6 7 6 7 7 7 7 8 7 7 7 6 6 6 6 5 9 14 13 13 12 13 14 14 15 9 6 6 5 8 13 14 12 13 15 17 17 12 12 15 14 14 14 11 4 6 5 6 6 7 8 8 8 8 8 9 10 12 13 13 12 11 11 11 11 10 11 11
8 9 7 7 7 8 8 6 6 6 7 7 8 8 10 10 9 8 7 7 7 8 7 8 7 7 7 6 6 5 5 5 6 6 7 8 9 11 12 12 13 14 13 9 14 16 15 14 14 13 12 12 8 4 3 5 12 13 13 11 4 5 4 5 5 6 7 8 8 9 8 8 9 9 10 10 9 9 9 10 10 9 9 10 10
7 6 7 7 6 8 10 8 7 6 6 6 6 7 7 8 8 9 9 9 8 8 7 7 7 7 7 7 6 5 5 6 6 5 6 6 6 5 6 6 10 11 8 7 9 8 8 7 3 8 9 14 13 11 9 9 8 6 5 4 4 4 5 4 5 6 7 7 8 7 8 8 8 9 9 9 9 8 8 9 10 10 10 9 9
9 9 9 8 8 8 8 9 10 8 7 8 9 8 7 8 10 11 12 12 10 8 8 8 9 9 8 7 6 6 6 6 6 7 6 6 6 6 5 5 5 4 6 7 6 5 3 2 4 2 2 3 5 4 4 4 6 5 5 4 5 6 6 9 9 5 6 6 7 7 8 8 8 9 9 8 8 8 8 8 9 10 9 9 9
5 5 5 6 7 6 7 8 8 8 7 7 6 7 9 10 10 6 4 5 8 9 9 9 9 8 7 7 7 6 6 7 8 8 9 9 9 6 6 6 6 6 8 12 6 3 3 2 2 3 2 3 4 5 5 5 5 5 4 5 5 4 5 4 5 6 6 5 6 7 9 8 9 8 8 9 9 9 8 8 8 8 10 8 8
5 6 6 7 6 7 7 7 7 8 8 8 7 5 6 10 7 7 6 9 14 12 9 8 7 6 7 7 7 8 8 6 9 14 14 15 15 15 14 14 13 10 12 18 7 4 5 4 3 3 4 4 5 5 6 5 6 6 5 5 5 5 5 4 5 6 6 6 6 7 8 8 8 8 8 9 10 8 8 10 9 9 9 9 10
6 6 7 7 8 8 7 7 7 7 7 7 7 7 5 7 15 16 12 11 12 15 15 13 12 12 9 6 7 12 10 10 12 12 14 15 16 16 16 16 17 16 16 5 5 5 4 3 3 2 4 6 5 6 5 5 4 5 6 5 4 5 6 5 6 6 7 7 7 6 7 7 8 8 9 9 10 10 9 7 7 8 8 9 9
8 8 8 6 7 7 7 7 7 8 7 7 8 7 7 7 6 12 17 15 15 16 15 15 14 14 14 11 7 5 10 13 14 15 17 18 17 17 16 16 16 16 19 10 5 5 4 4 4 4 5 5 6 5 4 5 5 5 5 5 5 4 4 5 5 5 7 7 7 7 6 7 7 8 8 8 10 9 9 10 9 9 9 8 8
8 7 7 8 7 8 8 8 8 8 8 8 8 8 8 8 9 7 8 16 18 16 15 14 15 15 15 16 16 13 12 13 15 16 17 16 15 14 15 16 16 17 15 7 4 5 4 5 5 6 5 7 6 5 6 4 6 5 5 5 6 5 4 5 6 6 6 6 7 7 7 7 7 8 8 8 9 9 10 10 9 9 9 10 10
8 7 8 9 9 8 8 8 8 8 7 7 7 7 7 7 6 6 6 4 7 10 13 14 14 14 14 15 15 16 16 16 16 16 16 15 15 14 14 11 15 17 11 6 5 5 5 5 6 6 6 6 6 5 5 6 5 5 5 5 5 5 5 5 5 6 5 6 6 7 7 7 7 7 8 8 8 8 9 9 9 10 10 10 10
6 7 10 9 8 8 7 7 7 7 7 7 7 7 7 5 6 6 7 7 8 7 4 3 7 11 9 9 11 13 14 14 15 15 15 14 14 14 15 9 8 7 5 3 5 5 6 6 6 7 6 6 6 5 6 5 5 5 6 6 5 5 5 4 6 6 6 6 6 6 6 7 7 7 7 8 8 9 9 10 9 9 10 10 10
6 6 5 7 7 6 7 7 6 7 7 7 6 6 6 6 6 6 4 3 4 3 2 2 1 3 6 7 8 9 12 13 14 15 14 15 15 15 9 7 6 7 7 5 5 5 6 6 6 7 6 6 5 6 6 6 6 6 6 5 6 5 4 5 6 6 6 6 6 7 8 6 6 7 7 7 8 9 9 10 10 9 10 9 9
6 6 5 5 5 6 6 6 5 6 5 6 6 6 5 5 5 4 5 5 4 3 4 2 1 3 4 3 6 9 11 13 15 16 16 15 16 11 7 7 7 6 5 6 5 4 6 6 6 6 6 6 6 6 5 6 6 5 5 6 5 6 5 4 6 6 6 6 7 6 6 6 6 7 7 8 8 8 8 9 9 11 11 13 15
5 6 5 5 5 5 5 5 5 6 6 5 5 5 5 5 5 5 5 4 4 4 3 2 3 4 5 5 4 3 4 8 9 9 10 11 9 6 5 6 6 6 6 5 5 5 6 6 6 7 7 6 6 6 6 6 6 6 6 5 5 5 8 8 9 7 7 6 6 6 6 6 6 6 7 7 8 8 8 9 9 10 11 12 9
4 6 9 8 6 5 5 5 6 6 5 5 5 6 6 5 4 4 4 3 3 3 3 3 4 4 4 2 1 1 2 3 3 5 5 6 6 6 4 5 5 5 4 5 5 5 6 7 7 5 5 6 6 6 6 6 6 6 6 6 6 5 6 5 6 6 5 6 6 6 6 6 6 6 7 8 8 7 8 9 10 9 10 10 9
5 4 7 9 6 6 6 7 5 5 6 5 5 4 4 5 4 4 4 4 4 4 3 4 4 4 3 1 2 2 4 6 5 5 5 6 7 7 6 6 6 5 6 6 6 6 6 6 6 6 6 5 6 6 6 6 7 6 5 6 6 6 6 5 6 6 6 6 6 6 6 6 6 6 7 7 7 6 8 9 10 10 9 10 10
5 5 5 6 6 6 5 5 5 5 4 4 4 5 4 4 4 3 3 4 3 3 4 4 4 3 3 5 9 9 6 6 5 5 5 4 4 3 4 5 4 4 3 4 6 5 6 6 6 6 6 6 6 6 6 6 6 6 6 6 6 6 6 6 6 6 6 6 6 7 6 6 6 6 7 7 8 7 7 8 9 9 10 10 9
5 5 5 5 6 5 5 5 5 5 4 4 4 4 3 4 4 3 3 3 3 3 3 2 2 3 6 12 12 14 9 5 6 6 5 5 6 6 4 5 5 4 5 5 6 6 6 6 6 6 6 6 6 6 6 6 6 6 6 6 6 6 6 6 5 5 5 6 6 7 6 6 7 7 8 9 7 6 7 8 8 9 9 9 9
5 5 4 4 5 5 5 5 5 5 4 4 3 3 3 4 4 4 3 4 3 2 2 3 4 3 4 8 9 10 5 4 2 3 4 6 7 6 5 6 5 6 5 5 6 6 6 6 6 6 6 7 6 6 7 7 6 6 6 6 6 6 6 6 6 6 5 6 6 6 7 7 7 6 6 7 7 7 7 8 9 9 9 9 9
5 4 4 4 5 5 5 5 5 4 4 4 4 4 4 4 3 3 3 2 3 2 3 4 4 4 4 6 6 5 4 4 4 6 5 5 4 6 6 4 5 5 6 6 6 6 6 6 6 6 5 6 6 5 6 6 7 6 6 6 6 7 6 6 6 6 6 5 5 6 7 8 8 7 7 8 7 8 7 8 8 8 9 8 9
4 5 5 5 4 5 4 4 4 4 4 4 4 3 4 3 3 3 3 3 4 4 4 4 4 4 5 4 4 5 5 6 6 6 7 7 6 6 6 6 6 6 6 6 6 5 5 6 6 6 7 6 6 6 6 6 5 6 6 6 6 7 7 7 7 5 5 5 6 6 7 6 6 6 7 7 7 7 7 7 8 8 9 8 8
4 4 4 4 4 3 4 4 4 5 5 4 4 3 3 3 3 3 4 4 4 5 5 4 3 3 5 5 4 6 6 5 6 6 7 6 6 6 6 6 6 6 6 6 5 5 6 6 6 6 7 7 6 6 6 6 6 6 6 6 7 8 7 7 5 5 6 6 6 6 7 7 7 8 10 8 8 7 7 7 7 7 7 8 9
3 4 4 3 4 4 4 4 4 4 4 4 4 3 3 4 4 4 5 5 3 5 3 3 3 5 5 5 6 5 6 6 6 6 6 6 6 6 6 5 6 6 6 5 4 5 6 6 6 7 7 7 6 7 6 6 5 6 5 6 6 7 7 6 7 7 7 6 6 5 5 6 8 8 10 10 8 8 6 7 7 8 8 7 7
3 3 3 3 4 4 4 4 4 4 4 4 3 4 3 3 2 4 4 4 3 4 3 4 5 5 5 5 5 6 6 6 6 7 6 6 6 6 6 5 6 6 6 6 5 5 6 6 6 6 7 7 7 7 6 6 6 6 6 6 6 7 8 8 7 7 6 6 5 5 5 6 6 8 8 9 9 7 7 7 7 7 7 7 8
3 4 4 3 3 3 3 4 4 4 4 4 4 4 4 3 4 3 3 4 4 5 4 5 6 5 4 5 6 6 6 7 6 6 6 6 6 6 6 6 6 6 6 6 6 6 6 6 6 6 7 7 7 7 7 6 7 6 6 6 8 12 14 14 10 7 7 6 5 5 6 7 8 9 10 9 8 7 7 6 6 7 7 6 7
3 3 3 3 3 3 3 3 4 4 4 4 5 5 4 5 4 4 4 4 5 5 5 5 6 6 6 6 7 6 5 5 6 6 6 6 6 5 6 6 6 6 6 6 6 5 5 5 6 6 6 7 7 7 7 7 7 7 6 7 11 14 14 15 15 14 10 5 6 6 7 8 9 9 8 8 8 7 7 7 7 7 6 6 7
2 2 2 2 2 2 3 3 4 4 5 5 4 5 4 4 5 5 5 5 6 6 5 6 6 5 5 6 6 6 6 6 5 5 6 6 6 5 6 6 6 6 6 6 6 6 6 6 6 6 6 7 7 7 7 7 7 7 9 12 15 16 16 15 10 11 14 11 8 8 8 9 9 8 7 7 6 6 8 8 7 7 6 6 6
Wind_Direction
136 133 126 125 125 125 125 120 117 113 111 118 125 134 130 121 118 119 99 98 103 97 89 87 82 83 70 69 83 37 44 23 348 29 11 10 356 359 355 354 353 322 338 331 335 2 352 334 314 314 339 6 330 318 312 310 318 318 329 337 324 320 319 298 292 293 294 293 300 321 353 330 321 337 325 324 329 319 314 318 317 314 313 312 312
143 135 129 131 132 130 125 120 117 119 123 129 132 131 125 123 127 107 109 111 103 102 107 104 98 98 109 90 86 42 51 12 356 31 10 2 350 350 357 352 335 321 334 326 333 336 350 321 316 318 340 353 319 313 307 316 316 335 329 317 306 305 305 307 292 291 292 305 306 331 332 334 312 330 325 319 321 320 315 314 314 311 311 310 306
141 136 137 137 135 131 125 125 127 132 135 140 137 133 129 123 119 125 122 120 104 107 110 115 112 112 114 111 99 41 53 22 3 30 353 10 341 335 327 334 312 313 326 313 322 322 335 326 314 328 338 332 309 305 309 309 332 331 320 321 311 305 300 293 299 294 295 293 302 316 332 336 315 319 319 312 311 308 306 311 313 312 307 303 300
144 139 138 136 136 131 132 135 139 145 145 150 142 135 127 120 117 121 133 124 124 130 125 120 117 133 132 111 86 114 38 37 353 344 353 315 360 310 311 306 308 312 319 318 314 324 320 334 315 327 326 319 306 308 308 328 335 335 327 315 308 309 312 312 301 294 298 299 302 318 325 324 308 306 310 306 306 312 313 311 309 303 304 307 314
145 147 146 143 143 140 144 146 152 154 151 149 144 134 129 128 126 133 128 132 142 147 144 141 149 133 139 126 129 147 140 135 292 300 322 6 346 291 282 306 314 320 316 313 320 325 323 307 308 317 317 310 301 305 309 338 339 335 314 312 320 315 314 314 306 302 296 293 298 305 315 305 299 302 312 315 317 312 308 304 303 305 307 312 317
153 152 154 149 150 151 154 156 162 157 151 148 144 139 135 133 134 130 134 143 143 137 132 146 146 140 134 146 163 183 160 162 248 246 270 336 327 312 328 335 331 323 311 309 311 310 298 291 292 305 305 300 299 300 332 344 334 318 315 315 311 309 306 302 297 294 291 289 296 304 313 317 314 306 315 317 318 316 309 302 297 301 307 307 299
158 157 157 155 156 161 162 166 161 154 152 149 141 134 135 138 137 139 142 151 151 149 148 156 174 150 208 137 180 172 180 246 250 329 47 22 9 354 345 335 320 323 307 306 305 295 291 289 288 287 288 286 294 318 331 323 316 306 305 308 304 305 307 308 310 307 303 301 300 299 305 311 312 309 312 312 303 301 306 310 307 303 296 294 301
162 163 161 163 166 166 167 163 153 150 147 144 140 137 136 137 136 135 134 153 151 148 166 161 198 143 198 155 190 133 199 304 290 78 50 28 16 346 342 317 305 305 302 293 290 292 291 288 281 279 281 285 301 309 307 300 295 289 294 298 306 308 308 309 309 309 307 304 301 306 306 307 309 301 304 308 304 293 287 301 304 309 305 297 296
167 168 168 170 171 165 159 154 149 147 148 145 142 143 144 142 138 139 153 164 144 150 156 153 190 189 181 174 186 245 148 236 111 101 80 348 330 300 290 295 302 296 296 302 300 297 295 290 287 286 289 298 303 304 302 301 300 297 288 291 301 300 297 294 290 296 300 298 300 301 301 303 304 309 311 310 309 306 303 298 292 293 295 298 293
170 173 174 174 167 162 156 150 149 148 150 153 152 149 147 147 145 151 161 152 146 154 169 190 189 203 185 191 173 166 191 205 147 165 187 198 254 271 286 281 285 289 295 298 295 290 292 297 301 307 308 309 310 309 307 305 302 301 300 299 292 286 280 283 287 285 290 289 289 299 300 298 299 303 301 301 300 296 294 294 292 297 298 293 287
177 176 176 170 163 152 148 150 149 159 161 151 151 151 150 147 149 155 162 154 167 163 168 205 198 204 183 178 188 198 185 193 210 215 232 260 265 267 273 284 287 292 284 284 290 298 296 298 308 312 310 309 306 304 308 309 307 304 302 300 300 300 303 299 291 288 285 284 279 288 284 290 296 295 295 293 293 293 287 285 291 297 294 301 303
177 178 172 165 160 158 157 154 160 165 159 161 161 156 146 146 155 161 162 163 174 167 200 207 206 191 170 177 181 211 215 227 224 232 250 259 262 264 266 276 282 282 287 284 284 292 296 303 299 297 300 300 299 307 308 306 307 307 307 305 303 300 296 293 294 293 285 283 286 281 285 288 289 291 288 292 291 285 281 284 289 287 291 290 289
176 175 175 171 167 164 160 163 168 169 169 163 158 151 150 153 158 166 181 179 171 184 205 203 201 188 171 186 203 219 200 248 243 243 254 264 270 276 272 271 270 272 276 281 282 287 298 299 297 295 297 302 305 300 295 293 295 300 302 298 292 286 286 288 287 286 290 288 286 285 277 281 282 278 278 281 281 284 286 283 282 281 282 280 286
177 178 177 177 170 164 162 167 173 172 163 159 158 157 159 173 171 167 166 173 183 189 205 202 194 191 182 183 195 208 209 244 245 247 254 259 267 273 265 266 268 270 271 275 281 286 290 289 293 293 289 289 291 293 290 283 281 278 276 263 258 263 269 274 282 285 282 278 273 273 277 269 268 275 277 278 283 283 284 282 279 279 276 273 279
179 180 182 175 164 164 167 172 172 167 164 163 164 166 169 165 167 175 179 186 183 191 197 192 199 186 182 165 178 230 229 240 245 247 250 256 263 270 268 268 267 267 271 273 273 269 271 276 278 279 283 283 277 289 291 288 283 278 273 272 270 265 261 261 265 250 255 255 257 265 273 271 268 274 274 275 271 272 273 275 277 277 279 283 285
184 182 176 168 170 172 172 175 171 167 165 168 172 174 174 178 177 175 175 187 189 183 203 186 196 185 174 172 193 236 243 244 245 243 246 252 261 262 256 259 259 262 268 268 266 258 255 255 260 268 267 272 284 295 296 294 285 283 283 283 286 289 283 277 282 286 286 285 279 271 275 284 289 290 291 289 285 283 280 281 283 289 294 295 293
187 184 179 176 178 177 176 174 174 171 170 173 181 180 176 181 177 166 174 187 185 191 195 191 185 177 182 184 195 233 240 247 248 244 246 246 246 227 246 245 254 255 259 263 264 264 262 260 259 265 274 266 281 294 297 300 294 300 312 312 300 291 289 296 308 310 308 305 303 302 301 302 302 305 308 310 308 308 309 305 300 302 294 291 282
191 185 184 181 182 180 180 176 174 173 173 184 186 185 178 171 175 175 180 183 189 191 180 185 190 181 189 196 195 207 241 244 243 248 249 240 230 215 227 239 251 252 253 261 259 255 254 271 276 277 277 271 277 290 299 312 319 317 301 296 304 309 310 314 309 302 300 297 297 300 302 303 304 304 305 302 301 302 299 295 300 300 294 291 294
190 187 188 187 186 181 177 176 176 176 184 191 183 176 179 181 172 165 182 181 179 160 164 177 203 210 206 202 204 207 233 249 252 251 246 241 232 216 222 221 241 244 244 250 253 249 252 260 273 277 278 282 291 302 311 316 308 303 314 313 309 307 309 310 301 298 309 321 313 311 304 303 303 300 296 299 302 303 296 290 292 285 285 286 288
191 190 191 186 180 176 177 179 182 182 189 184 178 177 155 146 164 170 177 173 162 157 162 176 199 222 213 203 211 207 220 246 249 250 242 234 227 208 207 229 233 247 245 255 250 253 249 243 259 281 287 292 302 310 312 310 312 314 313 314 313 302 301 295 309 321 320 315 309 308 304 305 305 305 307 309 308 307 306 305 305 304 299 298 295
191 196 182 173 175 180 181 184 186 190 184 177 166 154 158 162 156 162 170 163 155 155 170 188 203 225 226 225 210 217 208 229 246 246 245 235 230 226 213 227 237 241 245 251 251 251 248 249 248 273 288 298 306 307 307 312 313 316 325 305 291 297 311 325 328 327 318 312 308 307 307 309 306 304 304 305 306 311 312 311 310 309 307 306 303
184 174 174 177 180 180 183 186 183 173 156 147 154 160 153 147 159 158 164 168 165 169 168 188 203 230 239 232 226 223 220 223 227 248 245 236 229 227 217 220 232 228 240 244 246 239 252 269 259 278 292 301 305 305 311 313 316 327 308 304 310 317 326 345 329 319 313 311 311 309 310 312 316 318 317 314 311 311 315 313 312 311 308 305 304
171 174 176 177 181 182 180 173 169 160 161 162 158 158 152 151 155 156 163 168 166 167 178 191 211 233 241 238 230 223 219 221 230 231 242 238 230 228 232 233 236 234 230 236 242 269 264 255 247 286 301 302 305 310 312 316 325 310 309 316 320 325 342 334 318 313 310 312 312 311 317 321 321 320 320 322 325 325 322 318 314 309 303 298 294
166 173 181 183 173 174 172 167 158 157 157 154 154 151 156 154 155 166 168 169 171 176 189 193 212 227 231 236 230 224 215 206 228 231 232 238 233 229 233 238 240 235 237 245 248 251 247 216 252 289 299 307 310 310 314 317 312 311 313 317 325 339 341 319 309 308 308 308 309 310 313 316 315 317 322 321 319 319 315 312 310 310 307 302 295
171 181 182 176 172 163 151 157 157 156 158 156 158 160 157 158 162 175 168 178 179 185 194 189 206 218 222 225 223 216 207 204 211 234 235 232 233 233 236 242 245 247 250 246 259 252 252 262 279 294 306 309 308 310 314 311 310 308 313 320 333 340 316 303 303 305 309 309 310 310 310 316 319 314 316 315 313 312 308 305 301 293 291 288 289
178 186 176 170 162 149 150 147 148 154 158 170 172 170 167 172 173 170 177 191 192 194 196 192 205 212 223 225 219 214 208 195 207 217 233 241 242 243 242 243 246 248 252 258 256 257 259 267 283 300 306 302 301 300 288 296 306 310 316 320 319 308 298 301 300 302 300 307 307 310 309 311 310 307 303 301 303 306 308 305 309 310 317 316 312
180 172 172 164 154 158 162 165 162 161 166 164 169 169 170 175 176 179 183 187 196 199 197 196 202 208 220 223 219 212 212 207 207 211 218 225 229 238 245 246 250 254 259 261 265 265 271 276 275 277 288 301 305 306 306 307 306 299 292 295 294 292 290 272 277 290 301 300 302 301 306 303 300 303 307 309 309 309 313 316 315 313 314 316 311
182 186 179 167 169 171 173 165 163 170 180 177 180 182 185 184 189 193 188 189 184 196 193 202 202 204 214 206 205 208 216 208 210 207 214 214 219 218 218 224 224 229 254 257 243 209 177 215 275 309 313 299 297 301 289 281 278 291 295 295 293 289 292 303 305 296 285 284 293 303 303 307 307 305 305 309 311 314 317 313 314 312 318 316 311
176 167 160 156 169 172 172 170 177 174 181 191 209 200 188 191 202 218 225 193 196 188 191 204 206 206 198 192 188 212 208 215 216 204 208 217 214 206 219 218 220 213 248 259 229 146 155 211 220 283 292 276 281 281 285 290 287 282 290 293 290 299 309 310 299 293 289 297 303 306 303 301 302 301 308 311 313 315 314 312 314 312 311 308 303
169 178 172 174 168 167 177 178 180 179 180 190 192 227 224 210 207 201 216 213 216 218 202 203 198 190 201 213 193 200 208 209 207 216 224 227 229 224 223 228 230 234 233 255 230 164 190 205 218 253 272 270 271 273 276 277 284 297 288 295 305 307 295 289 292 291 291 297 294 298 296 296 299 307 311 311 310 311 315 321 314 315 312 313 312
182 185 175 190 184 182 179 179 183 182 181 181 189 196 222 233 223 221 217 218 222 225 225 224 214 200 191 209 224 224 223 220 223 226 232 236 235 239 241 246 250 256 265 270 141 190 198 231 261 258 258 253 255 258 267 272 277 286 291 293 289 292 297 295 289 290 296 296 294 285 285 292 302 310 310 311 313 314 317 315 310 311 308 308 306
193 197 193 186 174 177 182 179 175 182 184 182 187 190 198 215 247 229 225 222 223 225 228 230 228 225 218 206 194 239 235 236 239 242 242 243 243 244 246 247 253 256 267 212 186 201 228 242 257 248 247 253 254 255 254 260 270 271 280 299 295 286 287 291 291 297 295 293 293 293 296 304 304 303 306 310 313 314 317 319 322 319 314 308 301
197 191 183 180 179 177 177 180 184 183 185 183 189 187 196 201 212 222 224 225 224 225 228 228 229 229 230 231 222 212 211 223 239 244 245 245 247 251 254 256 254 257 246 197 164 207 204 224 232 241 233 245 249 248 253 251 259 264 260 266 283 288 281 282 300 289 285 290 297 299 300 300 302 303 305 311 315 316 319 318 319 316 311 310 308
197 188 183 181 176 184 184 185 182 190 189 190 189 190 200 198 202 186 183 191 220 230 231 230 231 235 240 243 245 250 252 252 255 253 249 245 244 247 249 255 258 255 217 188 195 219 208 228 237 238 238 238 243 244 255 254 253 259 267 263 264 276 283 290 293 289 285 292 292 288 295 295 299 309 311 313 313 312 315 317 317 317 317 315 312
191 191 179 173 183 184 184 183 182 181 182 187 188 190 195 192 189 191 184 188 197 203 217 245 248 245 249 255 262 261 259 257 255 254 254 253 253 255 257 255 248 234 221 142 181 203 218 227 235 240 232 238 243 235 248 250 253 258 261 270 270 274 283 289 285 286 288 288 289 288 290 301 307 307 312 312 317 321 319 319 317 314 313 311 312
180 182 176 176 172 177 178 178 174 177 180 184 179 181 173 173 183 188 182 185 182 184 185 178 175 325 289 280 270 257 258 259 259 258 256 254 254 250 248 239 224 220 216 206 195 213 210 223 226 238 233 238 239 243 241 249 250 252 254 259 274 276 279 286 289 286 282 285 292 300 302 299 305 310 306 303 308 315 316 315 314 311 313 314 316
175 174 171 173 166 160 159 159 162 161 159 154 157 159 159 166 159 159 167 181 191 196 194 198 75 323 294 304 298 284 271 265 264 261 258 256 251 249 247 243 231 223 215 215 208 209 218 230 221 229 231 235 237 237 243 249 253 256 264 264 267 277 275 269 272 276 299 302 293 290 293 297 307 307 307 310 313 312 312 313 311 313 318 319 321
170 166 159 148 141 136 134 143 146 142 138 141 148 150 153 156 163 169 176 182 183 181 206 201 218 218 227 259 247 214 283 295 290 281 275 265 260 254 248 231 217 210 222 207 211 207 224 231 224 222 231 226 237 239 241 252 253 255 257 264 268 263 284 290 296 297 287 283 288 290 294 298 300 303 308 308 309 309 311 315 315 315 314 314 314
138 144 145 144 140 135 136 132 136 131 140 142 150 153 165 160 164 168 172 164 179 190 184 195 213 228 245 240 284 221 234 271 260 261 267 261 262 258 237 231 218 226 216 225 227 227 226 233 232 227 229 231 236 240 235 249 248 252 255 264 272 278 282 282 283 279 283 280 287 289 291 294 296 300 308 303 299 306 311 314 314 310 311 313 311
124 123 141 146 134 135 129 137 135 139 150 149 159 151 153 157 167 171 168 175 198 201 193 209 223 233 245 258 236 226 226 235 240 251 255 253 248 245 223 220 222 219 225 232 226 227 233 237 231 231 236 233 233 240 239 241 246 251 254 255 261 268 268 268 273 278 279 285 284 289 292 291 294 302 298 294 292 304 315 315 311 311 308 309 308
124 128 133 137 132 122 120 132 141 152 148 149 148 145 159 159 163 163 175 193 196 198 211 208 220 234 229 238 251 241 216 228 237 244 255 265 271 249 231 226 212 225 222 221 233 234 232 234 235 231 234 234 232 235 240 239 245 250 249 255 256 262 268 266 265 269 277 281 284 286 287 288 292 301 299 297 304 310 309 307 306 305 304 303 303
130 132 132 133 131 126 136 136 142 135 133 142 145 153 159 164 160 162 181 186 194 198 213 234 237 241 255 261 261 264 261 223 209 220 239 254 264 262 231 219 216 207 215 224 228 236 238 237 237 232 233 236 233 239 237 245 241 242 247 250 253 259 265 266 266 269 276 279 280 279 280 289 294 297 304 308 305 302 302 306 306 303 303 305 308
129 137 136 128 129 141 143 144 136 141 146 150 149 143 148 149 161 170 177 182 191 200 216 237 252 247 251 264 275 280 295 314 306 256 224 228 238 243 239 233 230 228 224 228 228 224 229 232 235 232 229 233 228 227 230 236 235 239 242 246 253 258 265 271 275 273 272 274 276 286 292 293 294 290 290 296 296 296 297 302 305 305 303 306 306
120 118 116 118 115 116 128 137 143 145 137 141 136 141 144 140 151 157 171 194 206 218 219 232 235 245 253 268 279 291 296 282 276 278 278 273 262 255 254 250 250 248 248 241 238 228 225 232 238 244 243 244 238 235 236 235 228 231 237 245 254 257 259 262 263 265 267 275 285 291 293 291 290 293 294 294 293 293 297 302 304 306 307 305 306
110 123 128 123 125 126 124 121 128 129 128 128 132 135 142 154 172 188 190 207 221 221 230 233 238 242 253 257 250 246 250 254 260 263 266 261 262 263 262 261 253 249 248 245 233 222 224 231 238 246 252 247 241 241 242 240 233 232 230 230 239 250 253 256 255 260 268 277 282 286 285 285 290 290 290 284 284 290 295 299 301 306 307 304 307
122 129 129 131 128 128 123 126 127 130 138 149 155 167 173 177 192 199 209 211 215 222 234 238 239 241 242 246 244 243 242 240 245 247 250 256 255 258 256 253 252 247 244 241 236 229 230 229 233 239 245 248 246 242 243 239 237 233 232 226 232 243 249 254 259 262 260 256 263 269 281 286 290 287 285 288 289 288 288 293 297 294 292 300 302
99 119 125 135 140 137 137 139 136 144 147 154 161 171 186 192 196 204 210 212 223 231 238 243 243 247 245 244 244 247 244 243 244 246 244 245 248 250 254 252 253 252 249 243 236 235 232 234 235 238 245 252 251 249 247 242 242 241 241 239 240 245 249 252 251 251 249 249 252 269 278 282 283 283 284 285 285 283 286 292 291 295 296 300 303
105 105 117 130 134 138 142 144 149 150 156 168 167 175 178 183 192 197 206 219 228 237 249 256 254 254 255 259 251 249 247 247 248 246 250 250 251 252 252 253 254 255 258 256 249 244 240 241 239 241 246 251 252 254 252 247 244 240 243 243 243 242 245 247 249 251 249 252 248 252 259 265 266 271 275 275 276 279 290 293 296 293 295 299 304
96 103 119 127 138 137 147 146 156 166 173 176 180 186 191 199 210 216 216 220 224 228 223 233 242 242 241 247 248 250 249 251 251 256 255 257 258 256 254 252 253 253 253 256 252 247 246 247 243 243 242 247 247 250 255 254 253 247 247 245 249 252 255 257 257 251 248 251 250 250 251 253 258 259 260 264 273 281 282 283 284 287 293 298 300
94 103 115 121 129 140 141 154 163 173 181 186 188 192 196 200 213 216 223 224 233 233 233 228 234 235 235 246 246 247 245 248 253 256 259 260 259 257 256 255 254 252 251 255 258 255 251 248 248 249 248 248 248 250 251 253 256 255 255 253 258 261 261 258 258 258 259 249 243 244 244 249 251 258 267 273 274 276 280 279 280 284 288 293 297
77 98 113 132 147 149 152 162 175 182 183 189 188 196 204 212 219 221 219 225 230 238 237 236 238 243 243 242 242 245 244 246 247 253 258 261 261 261 259 259 260 261 261 258 261 256 251 251 250 248 245 245 246 247 249 250 254 254 256 259 261 261 261 260 256 255 253 246 236 234 238 246 256 261 266 270 273 267 273 281 281 282 286 286 289